• In Hungary
  • List of Countries
  • For 7 days
  • Water Temperature
  • Satellite Maps
  • Weather Map
  • News
  • Weather Widgets
  • user-avatar
    Login

    Hourly Weather Ashtarak

    Today, 23 November, Thursday

    Time Temperature Precipitation Wind Pressure Humidity
    00:00 0°C° 0 mm 1 mps 651 mmHg 72%
    01:00 -1°C° 0 mm 1 mps 651 mmHg 71%
    02:00 -1°C° 0 mm 1 mps 651 mmHg 70%
    03:00 -1°C° 0 mm 1 mps 652 mmHg 68%
    04:00 -3°C° 0.1 mm 2 mps 652 mmHg 69%
    05:00 -3°C° 0.1 mm 2 mps 652 mmHg 69%
    06:00 -3°C° 0.1 mm 2 mps 652 mmHg 70%
    07:00 -3°C° 0.1 mm 2 mps 652 mmHg 69%
    08:00 -2°C° 0.1 mm 3 mps 653 mmHg 68%
    09:00 -1°C° 0.1 mm 3 mps 653 mmHg 67%
    10:00 -1°C° 0.1 mm 3 mps 653 mmHg 65%
    11:00 0°C° 0.1 mm 3 mps 653 mmHg 62%
    12:00 0°C° 0.1 mm 4 mps 652 mmHg 60%
    13:00 +1°C° 0.1 mm 3 mps 652 mmHg 60%
    14:00 +1°C° 0.1 mm 3 mps 652 mmHg 60%
    15:00 +1°C° 0.1 mm 3 mps 653 mmHg 60%
    16:00 +1°C° 0.2 mm 2 mps 653 mmHg 64%
    17:00 -1°C° 0.2 mm 2 mps 653 mmHg 68%
    18:00 +1°C° 0.2 mm 1 mps 654 mmHg 71%
    19:00 0°C° 0.3 mm 1 mps 654 mmHg 73%
    20:00 0°C° 0.3 mm 1 mps 654 mmHg 75%
    21:00 0°C° 0.3 mm 1 mps 655 mmHg 77%
    22:00 -1°C° 0.1 mm 1 mps 655 mmHg 78%
    23:00 -1°C° 0.1 mm 1 mps 655 mmHg 79%

    Tomorrow, 24 November, Friday

    Time Temperature Precipitation Wind Pressure Humidity
    00:00 -1°C° 0.1 mm 1 mps 655 mmHg 80%
    01:00 -2°C° 0.1 mm 1 mps 655 mmHg 79%
    02:00 -2°C° 0.1 mm 1 mps 655 mmHg 77%
    03:00 -3°C° 0.1 mm 1 mps 655 mmHg 75%
    04:00 -3°C° 0 mm 1 mps 655 mmHg 74%
    05:00 -4°C° 0 mm 1 mps 655 mmHg 73%
    06:00 -4°C° 0 mm 1 mps 655 mmHg 72%
    07:00 -3°C° 0 mm 1 mps 656 mmHg 69%
    08:00 -3°C° 0 mm 1 mps 656 mmHg 67%
    09:00 -2°C° 0 mm 1 mps 657 mmHg 64%
    10:00 -2°C° 0 mm 1 mps 656 mmHg 61%
    11:00 -1°C° 0 mm 1 mps 656 mmHg 58%
    12:00 -2°C° 0 mm 2 mps 656 mmHg 55%
    13:00 0°C° 0 mm 1 mps 656 mmHg 55%
    14:00 0°C° 0 mm 1 mps 656 mmHg 55%
    15:00 0°C° 0 mm 1 mps 656 mmHg 55%
    16:00 -1°C° 0 mm 1 mps 656 mmHg 57%
    17:00 -2°C° 0 mm 1 mps 657 mmHg 59%
    18:00 -3°C° 0 mm 1 mps 657 mmHg 62%
    19:00 -4°C° 0 mm 1 mps 657 mmHg 62%
    20:00 -4°C° 0 mm 1 mps 657 mmHg 62%
    21:00 -4°C° 0 mm 1 mps 658 mmHg 62%
    22:00 -4°C° 0 mm 1 mps 658 mmHg 62%
    23:00 -7°C° 0 mm 2 mps 658 mmHg 62%

    Day after tomorrow, 25 November, Saturday

    Time Temperature Precipitation Wind Pressure Humidity
    00:00 -7°C° 0 mm 2 mps 658 mmHg 62%
    01:00 -7°C° 0 mm 2 mps 658 mmHg 62%
    02:00 -7°C° 0 mm 2 mps 658 mmHg 62%
    03:00 -7°C° 0 mm 2 mps 658 mmHg 63%
    04:00 -7°C° 0 mm 2 mps 659 mmHg 63%
    05:00 -7°C° 0 mm 2 mps 659 mmHg 64%
    06:00 -7°C° 0 mm 2 mps 659 mmHg 65%
    07:00 -6°C° 0 mm 2 mps 660 mmHg 64%
    08:00 -5°C° 0 mm 2 mps 661 mmHg 63%
    09:00 -5°C° 0 mm 2 mps 661 mmHg 61%
    10:00 -4°C° 0 mm 2 mps 661 mmHg 58%
    11:00 -3°C° 0 mm 2 mps 661 mmHg 56%
    12:00 -2°C° 0 mm 2 mps 661 mmHg 53%
    13:00 -2°C° 0 mm 2 mps 661 mmHg 53%
    14:00 -2°C° 0 mm 2 mps 661 mmHg 54%
    15:00 -2°C° 0 mm 2 mps 661 mmHg 54%
    16:00 -3°C° 0 mm 2 mps 661 mmHg 55%
    17:00 -4°C° 0 mm 2 mps 662 mmHg 56%
    18:00 -6°C° 0 mm 2 mps 662 mmHg 58%
    19:00 -6°C° 0 mm 2 mps 662 mmHg 57%
    20:00 -6°C° 0 mm 2 mps 662 mmHg 57%
    21:00 -4°C° 0 mm 1 mps 662 mmHg 56%
    22:00 -4°C° 0 mm 1 mps 662 mmHg 57%
    23:00 -6°C° 0 mm 1 mps 662 mmHg 57%

    26 November, Sunday

    Time Temperature Precipitation Wind Pressure Humidity
    00:00 -6°C° 0 mm 1 mps 662 mmHg 57%
    01:00 -6°C° 0 mm 1 mps 662 mmHg 57%
    02:00 -6°C° 0 mm 1 mps 662 mmHg 57%
    03:00 -6°C° 0 mm 1 mps 662 mmHg 57%
    04:00 -6°C° 0 mm 1 mps 662 mmHg 56%
    05:00 -6°C° 0 mm 1 mps 662 mmHg 56%
    06:00 -6°C° 0 mm 1 mps 662 mmHg 56%
    07:00 -4°C° 0 mm 1 mps 662 mmHg 54%
    08:00 -2°C° 0 mm 1 mps 663 mmHg 53%
    09:00 -1°C° 0 mm 1 mps 663 mmHg 51%
    10:00 0°C° 0 mm 1 mps 663 mmHg 49%
    11:00 +1°C° 0 mm 1 mps 662 mmHg 46%
    12:00 +3°C° 0 mm 1 mps 662 mmHg 43%
    13:00 +3°C° 0 mm 1 mps 662 mmHg 44%
    14:00 +3°C° 0 mm 1 mps 662 mmHg 44%
    15:00 +3°C° 0 mm 1 mps 661 mmHg 45%
    16:00 +1°C° 0 mm 1 mps 661 mmHg 46%
    17:00 0°C° 0 mm 1 mps 661 mmHg 46%
    18:00 -2°C° 0 mm 1 mps 661 mmHg 46%
    19:00 -2°C° 0 mm 1 mps 661 mmHg 45%
    20:00 -2°C° 0 mm 1 mps 662 mmHg 44%
    21:00 -2°C° 0 mm 1 mps 662 mmHg 43%
    22:00 -2°C° 0 mm 1 mps 662 mmHg 43%
    23:00 -2°C° 0 mm 1 mps 662 mmHg 42%

    27 November, Monday

    Time Temperature Precipitation Wind Pressure Humidity
    00:00 -3°C° 0 mm 1 mps 662 mmHg 42%
    01:00 -3°C° 0 mm 1 mps 661 mmHg 42%
    02:00 -3°C° 0 mm 1 mps 661 mmHg 42%
    03:00 -3°C° 0 mm 1 mps 661 mmHg 41%
    04:00 -3°C° 0 mm 1 mps 661 mmHg 42%
    05:00 -3°C° 0 mm 1 mps 661 mmHg 42%
    06:00 -3°C° 0 mm 1 mps 660 mmHg 42%
    07:00 -2°C° 0 mm 1 mps 661 mmHg 42%
    08:00 0°C° 0 mm 1 mps 661 mmHg 42%
    09:00 +1°C° 0 mm 1 mps 661 mmHg 42%
    10:00 +2°C° 0 mm 1 mps 661 mmHg 41%
    11:00 +3°C° 0 mm 2 mps 661 mmHg 40%
    12:00 +4°C° 0 mm 2 mps 660 mmHg 38%
    13:00 +4°C° 0 mm 2 mps 660 mmHg 38%
    14:00 +4°C° 0 mm 2 mps 659 mmHg 38%
    15:00 +4°C° 0 mm 2 mps 659 mmHg 38%
    16:00 +2°C° 0 mm 2 mps 659 mmHg 37%
    17:00 +1°C° 0 mm 2 mps 659 mmHg 37%
    18:00 -2°C° 0 mm 2 mps 659 mmHg 36%
    19:00 -2°C° 0 mm 2 mps 659 mmHg 36%
    20:00 -1°C° 0 mm 1 mps 659 mmHg 36%
    21:00 -1°C° 0 mm 1 mps 659 mmHg 36%
    22:00 -1°C° 0 mm 1 mps 659 mmHg 36%
    23:00 -1°C° 0 mm 1 mps 659 mmHg 37%

    28 November, Tuesday

    Time Temperature Precipitation Wind Pressure Humidity
    00:00 -1°C° 0 mm 1 mps 659 mmHg 37%
    01:00 -2°C° 0 mm 1 mps 658 mmHg 38%
    02:00 -2°C° 0 mm 1 mps 658 mmHg 38%
    03:00 -2°C° 0 mm 1 mps 658 mmHg 39%
    04:00 -2°C° 0 mm 1 mps 658 mmHg 39%
    05:00 -2°C° 0 mm 1 mps 658 mmHg 39%
    06:00 -2°C° 0 mm 1 mps 658 mmHg 40%
    07:00 -3°C° 0 mm 2 mps 658 mmHg 41%
    08:00 -1°C° 0 mm 2 mps 658 mmHg 42%
    09:00 +1°C° 0 mm 2 mps 659 mmHg 42%
    10:00 +2°C° 0 mm 2 mps 658 mmHg 43%
    11:00 +3°C° 0 mm 2 mps 658 mmHg 44%
    12:00 +5°C° 0 mm 2 mps 658 mmHg 45%
    13:00 +4°C° 0 mm 2 mps 657 mmHg 47%
    14:00 +4°C° 0 mm 2 mps 657 mmHg 49%
    15:00 +3°C° 0 mm 3 mps 657 mmHg 52%
    16:00 +3°C° 0 mm 2 mps 657 mmHg 53%
    17:00 +2°C° 0 mm 2 mps 657 mmHg 55%
    18:00 -1°C° 0 mm 2 mps 658 mmHg 57%
    19:00 -1°C° 0 mm 2 mps 658 mmHg 58%
    20:00 -1°C° 0 mm 2 mps 658 mmHg 60%
    21:00 +1°C° 0 mm 1 mps 658 mmHg 61%
    22:00 +1°C° 0 mm 1 mps 658 mmHg 62%
    23:00 +1°C° 0 mm 1 mps 658 mmHg 63%
    Show more